Location: Winthrop
(48.4780°N, 120.1850°W)
Time: 02:21:09
(UTC-07:00)

Transit 2A - Pass Details

Date: 23 June 2024
Orbit: 591 x 960 km, 66.7° (Epoch: 23 July)

Event Time Altitude Azimuth Distance (km) Brightness Sun altitude
Rises 23:03:37 0° 326° (NW) 3,479 11.4 -13.3°
Reaches altitude 10° 23:06:13 10° 333° (NNW) 2,584 10.2 -13.5°
Maximum altitude 23:11:57 41° 43° (NE) 1,336 7.4 -13.9°
Drops below altitude 10° 23:17:54 10° 113° (ESE) 2,689 8.4 -14.4°
Enters shadow 23:17:56 10° 113° (ESE) 2,700 8.4 -14.4°
